Time,TemperatureF,DewpointF,PressureIn,WindDirection,WindDirectionDegrees,WindSpeedMPH,WindSpeedGustMPH,Humidity,HourlyPrecipIn,Conditions,Clouds,dailyrainin,SoftwareType,DateUTC
2013-01-22 00:03:00,29.4,20.0,30.07,WSW,255,0.0,3.0,68,0.00,,,0.00,weatherlink.com 1.10,2013-01-22 05:03:00,
2013-01-22 00:18:00,29.0,21.0,30.06,SE,131,0.0,3.0,71,0.00,,,0.00,weatherlink.com 1.10,2013-01-22 05:18:00,
2013-01-22 00:33:00,28.6,21.0,30.06,WSW,256,0.0,2.0,73,0.00,,,0.00,weatherlink.com 1.10,2013-01-22 05:33:00,
2013-01-22 00:48:00,28.3,21.0,30.05,SSE,155,0.0,2.0,73,0.00,,,0.00,weatherlink.com 1.10,2013-01-22 05:48:00,
2013-01-22 01:18:00,27.6,21.0,30.06,West,262,0.0,1.0,76,0.00,,,0.00,weatherlink.com 1.10,2013-01-22 06:18:00,
2013-01-22 01:33:00,27.4,21.0,30.06,West,280,0.0,2.0,76,0.00,,,0.00,weatherlink.com 1.10,2013-01-22 06:33:00,
2013-01-22 01:48:00,27.0,21.0,30.05,WNW,297,0.0,1.0,78,0.00,,,0.00,weatherlink.com 1.10,2013-01-22 06:48:00,
2013-01-22 02:03:00,26.7,21.0,30.06,WNW,303,0.0,1.0,79,0.00,,,0.00,weatherlink.com 1.10,2013-01-22 07:03:00,
2013-01-22 02:18:00,26.4,21.0,30.07,East,95,0.0,2.0,80,0.00,,,0.00,weatherlink.com 1.10,2013-01-22 07:18:00,
2013-01-22 02:33:00,26.3,21.0,30.06,SE,129,0.0,3.0,80,0.00,,,0.00,weatherlink.com 1.10,2013-01-22 07:33:00,
2013-01-22 02:48:00,26.1,21.0,30.06,NE,54,2.0,2.0,81,0.00,,,0.00,weatherlink.com 1.10,2013-01-22 07:48:00,
2013-01-22 03:03:00,26.5,21.0,30.07,ESE,104,0.0,2.0,80,0.00,,,0.00,weatherlink.com 1.10,2013-01-22 08:03:00,
2013-01-22 03:18:00,26.5,21.0,30.07,ENE,77,1.0,1.0,79,0.00,,,0.00,weatherlink.com 1.10,2013-01-22 08:18:00,
2013-01-22 03:33:00,26.4,20.0,30.07,SE,129,0.0,2.0,76,0.00,,,0.00,weatherlink.com 1.10,2013-01-22 08:33:00,
2013-01-22 03:48:00,26.8,19.0,30.07,NNE,22,1.0,2.0,71,0.00,,,0.00,weatherlink.com 1.10,2013-01-22 08:48:00,
2013-01-22 04:03:00,26.3,19.0,30.07,SE,124,0.0,1.0,73,0.00,,,0.00,weatherlink.com 1.10,2013-01-22 09:03:00,
2013-01-22 04:18:00,26.1,18.0,30.07,SSE,165,0.0,2.0,72,0.00,,,0.00,weatherlink.com 1.10,2013-01-22 09:18:00,
2013-01-22 04:33:00,26.1,17.0,30.07,West,264,0.0,3.0,68,0.00,,,0.00,weatherlink.com 1.10,2013-01-22 09:33:00,
2013-01-22 04:48:00,26.1,16.0,30.08,ESE,121,0.0,2.0,65,0.00,,,0.00,weatherlink.com 1.10,2013-01-22 09:48:00,
2013-01-22 05:03:00,25.8,14.0,30.09,WNW,291,0.0,2.0,62,0.00,,,0.00,weatherlink.com 1.10,2013-01-22 10:03:00,
2013-01-22 05:18:00,25.4,14.0,30.09,SW,215,0.0,1.0,63,0.00,,,0.00,weatherlink.com 1.10,2013-01-22 10:18:00,
2013-01-22 05:33:00,24.9,14.0,30.11,ESE,118,0.0,1.0,63,0.00,,,0.00,weatherlink.com 1.10,2013-01-22 10:33:00,
2013-01-22 05:48:00,24.6,14.0,30.11,ENE,61,0.0,2.0,64,0.00,,,0.00,weatherlink.com 1.10,2013-01-22 10:48:00,
2013-01-22 06:03:00,24.2,14.0,30.12,WNW,287,0.0,1.0,64,0.00,,,0.00,weatherlink.com 1.10,2013-01-22 11:03:00,
2013-01-22 06:18:00,23.5,14.0,30.12,SSW,198,0.0,1.0,68,0.00,,,0.00,weatherlink.com 1.10,2013-01-22 11:18:00,
2013-01-22 06:33:00,23.3,13.0,30.12,SW,228,0.0,2.0,65,0.00,,,0.00,weatherlink.com 1.10,2013-01-22 11:33:00,
2013-01-22 06:48:00,23.6,12.0,30.14,ENE,65,0.0,2.0,61,0.00,,,0.00,weatherlink.com 1.10,2013-01-22 11:48:00,
2013-01-22 07:03:00,23.5,12.0,30.14,NNE,25,0.0,2.0,62,0.00,,,0.00,weatherlink.com 1.10,2013-01-22 12:03:00,
2013-01-22 07:18:00,23.4,12.0,30.15,SE,125,0.0,1.0,61,0.00,,,0.00,weatherlink.com 1.10,2013-01-22 12:18:00,
2013-01-22 07:34:00,23.1,11.0,30.16,ESE,117,1.0,2.0,60,0.00,,,0.00,weatherlink.com 1.10,2013-01-22 12:34:00,
2013-01-22 07:49:00,22.7,12.0,30.15,SW,214,0.0,1.0,63,0.00,,,0.00,weatherlink.com 1.10,2013-01-22 12:49:00,
2013-01-22 08:04:00,22.7,11.0,30.16,SW,235,0.0,1.0,61,0.00,,,0.00,weatherlink.com 1.10,2013-01-22 13:04:00,
2013-01-22 08:19:00,23.4,11.0,30.17,West,270,0.0,2.0,59,0.00,,,0.00,weatherlink.com 1.10,2013-01-22 13:19:00,
2013-01-22 08:34:00,25.5,10.0,30.18,ENE,68,2.0,4.0,53,0.00,,,0.00,weatherlink.com 1.10,2013-01-22 13:34:00,
2013-01-22 08:49:00,26.2,9.0,30.18,ESE,115,0.0,4.0,48,0.00,,,0.00,weatherlink.com 1.10,2013-01-22 13:49:00,
2013-01-22 09:04:00,26.7,9.0,30.19,East,86,3.0,6.0,48,0.00,,,0.00,weatherlink.com 1.10,2013-01-22 14:04:00,
2013-01-22 09:19:00,27.4,10.0,30.20,East,81,2.0,6.0,48,0.00,,,0.00,weatherlink.com 1.10,2013-01-22 14:19:00,
2013-01-22 09:34:00,28.1,11.0,30.20,ESE,120,0.0,4.0,48,0.00,,,0.00,weatherlink.com 1.10,2013-01-22 14:34:00,
2013-01-22 09:49:00,29.2,11.0,30.22,ESE,121,0.0,4.0,47,0.00,,,0.00,weatherlink.com 1.10,2013-01-22 14:49:00,
2013-01-22 10:04:00,29.6,10.0,30.23,ESE,112,0.0,4.0,44,0.00,,,0.00,weatherlink.com 1.10,2013-01-22 15:04:00,
2013-01-22 10:19:00,29.3,9.0,30.23,SE,142,1.0,5.0,43,0.00,,,0.00,weatherlink.com 1.10,2013-01-22 15:19:00,
2013-01-22 10:34:00,28.8,9.0,30.24,ESE,103,3.0,6.0,43,0.00,,,0.00,weatherlink.com 1.10,2013-01-22 15:34:00,
2013-01-22 10:50:00,30.9,10.0,30.24,NE,53,1.0,5.0,42,0.00,,,0.00,weatherlink.com 1.10,2013-01-22 15:50:00,
2013-01-22 11:04:00,30.8,10.0,30.25,SE,129,1.0,4.0,41,0.00,,,0.00,weatherlink.com 1.10,2013-01-22 16:04:00,
2013-01-22 11:19:00,31.2,10.0,30.24,WSW,255,0.0,4.0,41,0.00,,,0.00,weatherlink.com 1.10,2013-01-22 16:19:00,
2013-01-22 11:34:00,32.8,11.0,30.25,WNW,290,0.0,3.0,40,0.00,,,0.00,weatherlink.com 1.10,2013-01-22 16:34:00,
2013-01-22 11:49:00,32.8,11.0,30.24,WSW,238,1.0,4.0,41,0.00,,,0.00,weatherlink.com 1.10,2013-01-22 16:49:00,
2013-01-22 12:04:00,33.3,10.0,30.23,East,91,0.0,5.0,38,0.00,,,0.00,weatherlink.com 1.10,2013-01-22 17:04:00,
2013-01-22 12:19:00,33.2,11.0,30.22,ENE,75,0.0,6.0,40,0.00,,,0.00,weatherlink.com 1.10,2013-01-22 17:19:00,
2013-01-22 12:34:00,35.1,13.0,30.21,NE,46,2.0,4.0,40,0.00,,,0.00,weatherlink.com 1.10,2013-01-22 17:34:00,
2013-01-22 12:49:00,34.7,11.0,30.21,NNE,16,3.0,6.0,38,0.00,,,0.00,weatherlink.com 1.10,2013-01-22 17:49:00,
2013-01-22 13:04:00,35.6,13.0,30.20,NE,42,3.0,4.0,40,0.00,,,0.00,weatherlink.com 1.10,2013-01-22 18:04:00,
2013-01-22 13:19:00,36.6,13.0,30.20,East,86,0.0,5.0,38,0.00,,,0.00,weatherlink.com 1.10,2013-01-22 18:19:00,
2013-01-22 13:34:00,36.2,13.0,30.20,NNE,20,2.0,5.0,38,0.00,,,0.00,weatherlink.com 1.10,2013-01-22 18:34:00,
2013-01-22 13:49:00,36.9,11.0,30.19,NE,55,3.0,7.0,35,0.00,,,0.00,weatherlink.com 1.10,2013-01-22 18:49:00,
2013-01-22 14:04:00,37.1,11.0,30.18,SW,225,1.0,6.0,34,0.00,,,0.00,weatherlink.com 1.10,2013-01-22 19:04:00,
2013-01-22 14:19:00,37.2,11.0,30.18,SSE,149,0.0,5.0,34,0.00,,,0.00,weatherlink.com 1.10,2013-01-22 19:19:00,
2013-01-22 14:34:00,37.3,10.0,30.18,NE,42,5.0,5.0,33,0.00,,,0.00,weatherlink.com 1.10,2013-01-22 19:34:00,
2013-01-22 14:49:00,36.8,9.0,30.19,ENE,57,1.0,5.0,32,0.00,,,0.00,weatherlink.com 1.10,2013-01-22 19:49:00,
2013-01-22 15:04:00,36.3,9.0,30.19,NE,39,1.0,6.0,32,0.00,,,0.00,weatherlink.com 1.10,2013-01-22 20:04:00,
2013-01-22 15:19:00,35.6,8.0,30.18,East,83,3.0,8.0,32,0.00,,,0.00,weatherlink.com 1.10,2013-01-22 20:19:00,
2013-01-22 15:34:00,35.6,8.0,30.18,NE,36,2.0,6.0,32,0.00,,,0.00,weatherlink.com 1.10,2013-01-22 20:34:00,
2013-01-22 15:49:00,35.2,8.0,30.19,ENE,75,0.0,8.0,32,0.00,,,0.00,weatherlink.com 1.10,2013-01-22 20:49:00,
2013-01-22 16:04:00,35.0,7.0,30.20,ESE,120,4.0,7.0,31,0.00,,,0.00,weatherlink.com 1.10,2013-01-22 21:04:00,
2013-01-22 16:19:00,34.4,5.0,30.20,ESE,117,2.0,5.0,29,0.00,,,0.00,weatherlink.com 1.10,2013-01-22 21:19:00,
2013-01-22 16:34:00,34.0,5.0,30.21,NE,44,0.0,6.0,29,0.00,,,0.00,weatherlink.com 1.10,2013-01-22 21:34:00,
2013-01-22 16:53:00,34.3,5.0,30.21,ENE,57,4.0,8.0,29,0.00,,,0.00,weatherlink.com 1.10,2013-01-22 21:53:00,
2013-01-22 17:05:00,33.7,4.0,30.21,NE,35,2.0,5.0,28,0.00,,,0.00,weatherlink.com 1.10,2013-01-22 22:05:00,
2013-01-22 17:20:00,32.8,4.0,30.22,ENE,63,1.0,4.0,29,0.00,,,0.00,weatherlink.com 1.10,2013-01-22 22:20:00,
2013-01-22 17:35:00,31.4,3.0,30.23,North,9,0.0,4.0,30,0.00,,,0.00,weatherlink.com 1.10,2013-01-22 22:35:00,
2013-01-22 17:50:00,30.4,3.0,30.23,SSE,166,0.0,3.0,31,0.00,,,0.00,weatherlink.com 1.10,2013-01-22 22:50:00,
2013-01-22 18:05:00,29.5,5.0,30.23,East,96,0.0,1.0,35,0.00,,,0.00,weatherlink.com 1.10,2013-01-22 23:05:00,
2013-01-22 18:20:00,28.7,4.0,30.23,NE,47,0.0,1.0,34,0.00,,,0.00,weatherlink.com 1.10,2013-01-22 23:20:00,
2013-01-22 18:35:00,28.3,3.0,30.22,ENE,64,0.0,1.0,34,0.00,,,0.00,weatherlink.com 1.10,2013-01-22 23:35:00,
2013-01-22 18:50:00,27.9,3.0,30.23,ENE,70,0.0,1.0,34,0.00,,,0.00,weatherlink.com 1.10,2013-01-22 23:50:00,
2013-01-22 19:05:00,27.5,2.0,30.23,East,97,0.0,1.0,33,0.00,,,0.00,weatherlink.com 1.10,2013-01-23 00:05:00,
2013-01-22 19:20:00,27.2,2.0,30.23,WNW,285,0.0,2.0,34,0.00,,,0.00,weatherlink.com 1.10,2013-01-23 00:20:00,
2013-01-22 19:35:00,26.8,2.0,30.24,WNW,288,0.0,1.0,35,0.00,,,0.00,weatherlink.com 1.10,2013-01-23 00:35:00,
2013-01-22 19:50:00,26.4,2.0,30.25,NNW,348,0.0,1.0,35,0.00,,,0.00,weatherlink.com 1.10,2013-01-23 00:50:00,
2013-01-22 20:05:00,26.0,3.0,30.25,NNE,32,0.0,1.0,37,0.00,,,0.00,weatherlink.com 1.10,2013-01-23 01:05:00,
2013-01-22 20:20:00,25.7,3.0,30.26,NNE,32,0.0,1.0,38,0.00,,,0.00,weatherlink.com 1.10,2013-01-23 01:20:00,
2013-01-22 20:35:00,25.1,3.0,30.26,West,269,0.0,1.0,38,0.00,,,0.00,weatherlink.com 1.10,2013-01-23 01:35:00,
2013-01-22 20:50:00,24.9,4.0,30.26,West,275,0.0,1.0,41,0.00,,,0.00,weatherlink.com 1.10,2013-01-23 01:50:00,
2013-01-22 21:05:00,24.6,5.0,30.25,East,88,0.0,1.0,43,0.00,,,0.00,weatherlink.com 1.10,2013-01-23 02:05:00,
2013-01-22 21:20:00,24.5,4.0,30.25,ENE,72,0.0,2.0,41,0.00,,,0.00,weatherlink.com 1.10,2013-01-23 02:20:00,
2013-01-22 21:35:00,24.1,3.0,30.25,NNE,32,0.0,1.0,41,0.00,,,0.00,weatherlink.com 1.10,2013-01-23 02:35:00,
2013-01-22 21:50:00,23.9,5.0,30.25,North,360,0.0,1.0,44,0.00,,,0.00,weatherlink.com 1.10,2013-01-23 02:50:00,
2013-01-22 22:05:00,23.6,3.0,30.26,NNE,32,0.0,1.0,42,0.00,,,0.00,weatherlink.com 1.10,2013-01-23 03:05:00,
2013-01-22 22:35:00,23.2,7.0,30.26,NE,34,0.0,2.0,51,0.00,,,0.00,weatherlink.com 1.10,2013-01-23 03:35:00,
2013-01-22 22:50:00,22.8,5.0,30.27,NNE,33,0.0,1.0,47,0.00,,,0.00,weatherlink.com 1.10,2013-01-23 03:50:00,
2013-01-22 23:05:00,22.7,6.0,30.27,SW,235,0.0,1.0,49,0.00,,,0.00,weatherlink.com 1.10,2013-01-23 04:05:00,
2013-01-22 23:20:00,22.1,6.0,30.27,SW,235,0.0,0.0,49,0.00,,,0.00,weatherlink.com 1.10,2013-01-23 04:20:00,
2013-01-22 23:35:00,21.7,6.0,30.27,SW,236,0.0,1.0,52,0.00,,,0.00,weatherlink.com 1.10,2013-01-23 04:35:00,
2013-01-22 23:50:00,21.6,7.0,30.27,SW,236,0.0,0.0,53,0.00,,,0.00,weatherlink.com 1.10,2013-01-23 04:50:00,